timestamp,wind_dir_avg,wind_spd_avg,wind_spd_max_dir,wind_spd_gust,battery_voltage,lat,long
2021-02-15 00:04:01+00:00,299.0,4.72,300.0,5.39,12.49,47.59359,-54.27349
2021-02-15 00:14:01+00:00,299.0,3.25,296.0,3.89,12.49,47.59359,-54.27349
2021-02-15 00:24:01+00:00,287.0,3.21,290.0,4.2,12.49,47.59359,-54.27349
2021-02-15 00:34:01+00:00,289.0,3.31,272.0,4.61,12.49,47.59359,-54.27349
2021-02-15 00:44:01+00:00,278.0,4.24,277.0,4.91,12.49,47.59359,-54.27349
2021-02-15 00:54:01+00:00,271.0,5.11,273.0,7.31,12.49,47.59359,-54.27349
2021-02-15 01:04:01+00:00,270.0,4.75,274.0,6.36,12.49,47.59359,-54.27349
2021-02-15 01:14:01+00:00,264.0,4.28,259.0,5.57,12.41,47.59359,-54.27349
2021-02-15 01:24:01+00:00,277.0,5.06,289.0,6.3,12.41,47.59359,-54.27349
2021-02-15 01:34:01+00:00,286.0,4.58,283.0,5.21,12.41,47.59359,-54.27349
2021-02-15 01:44:01+00:00,276.0,3.67,263.0,4.67,12.41,47.59359,-54.27349
2021-02-15 01:54:01+00:00,268.0,4.87,265.0,5.69,12.41,47.59359,-54.27349
2021-02-15 02:04:01+00:00,270.0,3.97,265.0,5.43,12.41,47.59359,-54.27349
2021-02-15 02:14:01+00:00,269.0,6.34,269.0,7.49,12.41,47.59359,-54.27349
2021-02-15 02:24:01+00:00,282.0,5.87,278.0,7.14,12.41,47.59359,-54.27349
2021-02-15 02:34:01+00:00,262.0,6.67,263.0,7.35,12.41,47.59359,-54.27349
2021-02-15 02:44:01+00:00,274.0,4.59,276.0,5.82,12.41,47.59359,-54.27349
2021-02-15 02:54:01+00:00,255.0,4.37,242.0,5.3,12.41,47.59359,-54.27349
2021-02-15 03:04:01+00:00,277.0,3.75,293.0,5.15,12.41,47.59359,-54.27349
2021-02-15 03:14:01+00:00,269.0,3.3,268.0,4.09,12.41,47.59359,-54.27349
2021-02-15 03:24:01+00:00,275.0,3.72,273.0,4.41,12.41,47.59359,-54.27349
2021-02-15 03:34:01+00:00,286.0,6.92,287.0,7.89,12.41,47.59359,-54.27349
2021-02-15 03:44:01+00:00,285.0,6.7,276.0,8.16,12.41,47.59359,-54.27349
2021-02-15 03:54:01+00:00,280.0,6.35,277.0,7.76,12.41,47.59359,-54.27349
2021-02-15 04:04:01+00:00,292.0,5.26,292.0,6.1,12.41,47.59359,-54.27349
2021-02-15 04:14:01+00:00,267.0,5.98,265.0,6.9,12.33,47.59359,-54.27349
2021-02-15 04:24:01+00:00,265.0,4.37,268.0,5.57,12.33,47.59359,-54.27349
2021-02-15 04:34:01+00:00,273.0,5.1,273.0,5.82,12.33,47.59359,-54.27349
2021-02-15 04:44:01+00:00,271.0,5.16,271.0,6.09,12.33,47.59359,-54.27349
2021-02-15 04:54:01+00:00,274.0,4.25,281.0,5.05,12.33,47.59359,-54.27349
2021-02-15 05:04:01+00:00,263.0,3.5,267.0,4.3,12.33,47.59359,-54.27349
2021-02-15 05:14:01+00:00,259.0,4.95,263.0,5.96,12.33,47.59359,-54.27349
2021-02-15 05:24:01+00:00,271.0,4.01,269.0,4.79,12.33,47.59359,-54.27349
2021-02-15 05:34:01+00:00,260.0,4.88,262.0,6.51,12.33,47.59359,-54.27349
2021-02-15 05:44:01+00:00,258.0,5.14,257.0,7.02,12.33,47.59359,-54.27349
2021-02-15 05:54:01+00:00,274.0,4.45,274.0,5.67,12.33,47.59359,-54.27349
2021-02-15 06:04:01+00:00,258.0,4.24,258.0,4.8,12.33,47.59359,-54.27349
2021-02-15 06:14:01+00:00,264.0,3.93,263.0,4.8,12.33,47.59359,-54.27349
2021-02-15 06:24:01+00:00,253.0,4.42,257.0,5.26,12.33,47.59359,-54.27349
2021-02-15 06:34:01+00:00,241.0,4.76,241.0,5.38,12.33,47.59359,-54.27349
2021-02-15 06:44:01+00:00,238.0,4.22,241.0,4.92,12.33,47.59359,-54.27349
2021-02-15 06:54:01+00:00,248.0,4.42,250.0,4.88,12.33,47.59359,-54.27349
2021-02-15 07:04:01+00:00,259.0,3.88,266.0,4.61,12.33,47.59359,-54.27349
2021-02-15 07:14:01+00:00,237.0,4.35,242.0,5.02,12.33,47.59359,-54.27349
2021-02-15 07:24:01+00:00,259.0,3.71,252.0,4.6,12.33,47.59359,-54.27349
2021-02-15 07:34:01+00:00,255.0,3.38,254.0,4.43,12.33,47.59359,-54.27349
2021-02-15 07:44:01+00:00,247.0,2.93,246.0,3.43,12.33,47.59359,-54.27349
2021-02-15 07:54:01+00:00,263.0,2.97,273.0,3.76,12.33,47.59359,-54.27349
2021-02-15 08:04:01+00:00,290.0,3.31,302.0,3.96,12.33,47.59359,-54.27349
2021-02-15 08:14:01+00:00,275.0,2.97,276.0,3.85,12.25,47.59359,-54.27349
2021-02-15 08:24:01+00:00,305.0,3.25,304.0,3.78,12.25,47.59359,-54.27349
2021-02-15 08:34:01+00:00,293.0,4.75,304.0,5.84,12.25,47.59359,-54.27349
2021-02-15 08:44:01+00:00,280.0,4.41,281.0,5.25,12.25,47.59359,-54.27349
2021-02-15 08:54:01+00:00,298.0,4.5,296.0,5.37,12.25,47.59359,-54.27349
2021-02-15 09:04:01+00:00,294.0,5.35,301.0,6.04,12.25,47.59359,-54.27349
2021-02-15 09:14:01+00:00,279.0,6.22,279.0,7.25,12.25,47.59359,-54.27349
2021-02-15 09:24:01+00:00,281.0,5.23,283.0,6.2,12.25,47.59359,-54.27349
2021-02-15 09:34:01+00:00,290.0,5.24,293.0,6.26,12.25,47.59359,-54.27349
2021-02-15 09:44:01+00:00,289.0,4.17,297.0,5.25,12.25,47.59359,-54.27349
2021-02-15 09:54:01+00:00,285.0,3.98,282.0,4.87,12.25,47.59359,-54.27349
2021-02-15 10:04:01+00:00,285.0,5.58,292.0,6.58,12.25,47.59359,-54.27349
2021-02-15 10:14:01+00:00,294.0,3.58,300.0,4.12,12.25,47.59359,-54.27349
2021-02-15 10:24:01+00:00,296.0,3.51,302.0,4.23,12.25,47.59359,-54.27349
2021-02-15 10:34:01+00:00,290.0,4.35,285.0,5.39,12.25,47.59359,-54.27349
2021-02-15 10:44:01+00:00,296.0,3.92,295.0,4.46,12.25,47.59359,-54.27349
2021-02-15 10:54:01+00:00,312.0,3.06,317.0,3.57,12.25,47.59359,-54.27349
2021-02-15 11:04:01+00:00,311.0,3.64,307.0,4.5,12.25,47.59359,-54.27349
2021-02-15 11:14:01+00:00,285.0,4.35,278.0,5.4,12.25,47.59359,-54.27349
2021-02-15 11:24:01+00:00,294.0,4.68,300.0,5.76,12.25,47.59359,-54.27349
2021-02-15 11:34:01+00:00,282.0,4.63,281.0,5.68,12.25,47.59359,-54.27349
2021-02-15 11:44:01+00:00,273.0,5.77,274.0,7.47,12.25,47.59359,-54.27349
2021-02-15 11:54:01+00:00,273.0,5.0,273.0,5.61,12.25,47.59359,-54.27349
2021-02-15 12:04:01+00:00,274.0,5.2,260.0,6.51,12.25,47.59359,-54.27349
2021-02-15 12:14:01+00:00,275.0,5.49,264.0,6.31,12.49,47.59359,-54.27349
2021-02-15 12:24:01+00:00,268.0,6.04,266.0,6.94,12.49,47.59359,-54.27349
2021-02-15 12:34:01+00:00,258.0,5.6,258.0,6.72,12.49,47.59359,-54.27349
2021-02-15 12:44:01+00:00,269.0,5.89,269.0,6.94,12.49,47.59359,-54.27349
2021-02-15 12:54:01+00:00,270.0,5.71,266.0,7.25,12.49,47.59359,-54.27349
2021-02-15 13:04:01+00:00,275.0,5.99,275.0,7.28,12.49,47.59359,-54.27349
2021-02-15 13:14:01+00:00,283.0,6.21,287.0,8.58,14.32,47.59359,-54.27349
2021-02-15 13:24:01+00:00,276.0,6.36,275.0,6.89,14.32,47.59359,-54.27349
2021-02-15 13:34:01+00:00,272.0,7.64,276.0,8.69,14.32,47.59359,-54.27349
2021-02-15 13:44:01+00:00,277.0,7.7,272.0,9.23,14.32,47.59359,-54.27349
2021-02-15 13:54:01+00:00,270.0,6.6,272.0,7.62,14.32,47.59359,-54.27349
2021-02-15 14:04:01+00:00,280.0,8.27,279.0,11.39,14.32,47.59359,-54.27349
2021-02-15 14:14:01+00:00,285.0,6.74,289.0,7.61,13.84,47.59359,-54.27349
2021-02-15 14:24:01+00:00,275.0,7.7,270.0,9.17,13.84,47.59359,-54.27349
2021-02-15 14:34:01+00:00,286.0,7.35,284.0,8.53,13.84,47.59359,-54.27349
2021-02-15 14:44:01+00:00,278.0,5.71,285.0,6.93,13.84,47.59359,-54.27349
2021-02-15 14:54:01+00:00,283.0,8.27,291.0,10.46,13.84,47.59359,-54.27349
2021-02-15 15:04:01+00:00,283.0,7.0,272.0,8.48,13.84,47.59359,-54.27349
2021-02-15 15:14:01+00:00,278.0,6.1,273.0,7.66,13.92,47.59359,-54.27349
2021-02-15 15:24:01+00:00,272.0,8.57,274.0,10.42,13.92,47.59359,-54.27349
2021-02-15 15:34:01+00:00,267.0,9.2,270.0,10.55,13.92,47.59359,-54.27349
2021-02-15 15:44:01+00:00,270.0,6.89,272.0,7.73,13.92,47.59359,-54.27349
2021-02-15 15:54:01+00:00,266.0,7.89,269.0,8.73,13.92,47.59359,-54.27349
2021-02-15 16:04:01+00:00,308.0,9.65,307.0,10.52,13.92,47.59359,-54.27349
2021-02-15 16:14:01+00:00,309.0,9.64,310.0,10.86,13.68,47.59359,-54.27349
2021-02-15 16:24:01+00:00,304.0,7.5,303.0,8.81,13.68,47.59359,-54.27349
2021-02-15 16:34:01+00:00,318.0,8.26,320.0,10.09,13.68,47.59359,-54.27349
2021-02-15 16:44:01+00:00,315.0,9.22,314.0,10.78,13.68,47.59359,-54.27349
2021-02-15 16:54:01+00:00,308.0,6.34,308.0,7.29,13.68,47.59359,-54.27349
2021-02-15 17:04:01+00:00,312.0,8.81,307.0,9.96,13.68,47.59359,-54.27349
2021-02-15 17:14:01+00:00,301.0,8.7,293.0,10.1,13.68,47.59359,-54.27349
2021-02-15 17:24:01+00:00,294.0,9.06,294.0,10.17,13.68,47.59359,-54.27349
2021-02-15 17:34:01+00:00,312.0,8.0,318.0,10.01,13.68,47.59359,-54.27349
2021-02-15 17:44:01+00:00,309.0,6.94,312.0,8.52,13.68,47.59359,-54.27349
2021-02-15 17:54:01+00:00,302.0,5.9,306.0,7.48,13.68,47.59359,-54.27349
2021-02-15 18:04:01+00:00,320.0,7.66,322.0,8.41,13.68,47.59359,-54.27349
2021-02-15 18:14:01+00:00,304.0,7.31,305.0,8.8,13.76,47.59359,-54.27349
2021-02-15 18:24:01+00:00,317.0,8.13,319.0,9.15,13.76,47.59359,-54.27349
2021-02-15 18:34:01+00:00,301.0,8.46,305.0,9.68,13.76,47.59359,-54.27349
2021-02-15 18:44:01+00:00,298.0,5.53,295.0,6.37,13.76,47.59359,-54.27349
2021-02-15 18:54:01+00:00,307.0,8.73,303.0,10.15,13.76,47.59359,-54.27349
2021-02-15 19:04:01+00:00,298.0,8.41,302.0,9.54,13.76,47.59359,-54.27349
2021-02-15 19:14:01+00:00,300.0,8.45,302.0,9.27,14.32,47.59359,-54.27349
2021-02-15 19:24:01+00:00,308.0,7.34,318.0,9.23,14.32,47.59359,-54.27349
2021-02-15 19:34:01+00:00,301.0,7.87,299.0,9.23,14.32,47.59359,-54.27349
2021-02-15 19:44:01+00:00,293.0,7.95,288.0,9.26,14.32,47.59359,-54.27349
2021-02-15 19:54:01+00:00,280.0,8.85,281.0,10.16,14.32,47.59359,-54.27349
2021-02-15 20:04:01+00:00,306.0,8.34,301.0,9.6,14.32,47.59359,-54.27349
2021-02-15 20:14:01+00:00,302.0,7.57,299.0,9.2,13.53,47.59359,-54.27349
2021-02-15 20:24:01+00:00,309.0,9.55,307.0,12.31,13.53,47.59359,-54.27349
2021-02-15 20:34:01+00:00,304.0,8.12,306.0,9.5,13.53,47.59359,-54.27349
2021-02-15 20:44:01+00:00,306.0,8.98,308.0,10.83,13.53,47.59359,-54.27349
2021-02-15 20:54:01+00:00,305.0,9.27,307.0,10.63,13.53,47.59359,-54.27349
2021-02-15 21:04:01+00:00,296.0,8.63,293.0,9.88,13.53,47.59359,-54.27349
2021-02-15 21:14:01+00:00,304.0,7.36,302.0,9.44,12.89,47.59359,-54.27349
2021-02-15 21:24:01+00:00,299.0,6.89,298.0,8.82,12.89,47.59359,-54.27349
2021-02-15 21:34:01+00:00,294.0,7.38,292.0,8.39,12.89,47.59359,-54.27349
2021-02-15 21:44:01+00:00,297.0,6.28,297.0,7.34,12.89,47.59359,-54.27349
2021-02-15 21:54:01+00:00,297.0,5.7,300.0,6.38,12.89,47.59359,-54.27349
2021-02-15 22:04:01+00:00,298.0,5.29,293.0,7.15,12.89,47.59359,-54.27349
2021-02-15 22:14:01+00:00,300.0,7.57,300.0,9.12,12.65,47.59359,-54.27349
2021-02-15 22:24:01+00:00,291.0,5.45,306.0,6.24,12.65,47.59359,-54.27349
2021-02-15 22:34:01+00:00,285.0,6.31,282.0,7.36,12.65,47.59359,-54.27349
2021-02-15 22:44:01+00:00,290.0,5.64,294.0,6.57,12.65,47.59359,-54.27349
2021-02-15 22:54:01+00:00,283.0,5.63,281.0,6.35,12.65,47.59359,-54.27349
2021-02-15 23:04:01+00:00,287.0,4.84,289.0,5.46,12.65,47.59359,-54.27349
2021-02-15 23:14:01+00:00,295.0,4.7,299.0,5.83,12.57,47.59359,-54.27349
2021-02-15 23:24:01+00:00,303.0,4.84,305.0,5.64,12.57,47.59359,-54.27349
2021-02-15 23:34:01+00:00,304.0,6.7,306.0,7.67,12.57,47.59359,-54.27349
2021-02-15 23:44:01+00:00,289.0,4.7,304.0,6.19,12.57,47.59359,-54.27349
2021-02-15 23:54:01+00:00,300.0,7.05,303.0,8.6,12.57,47.59359,-54.27349
